Time,TemperatureF,DewpointF,PressureIn,WindDirection,WindDirectionDegrees,WindSpeedMPH,WindSpeedGustMPH,Humidity,HourlyPrecipIn,Conditions,Clouds,dailyrainin,SoftwareType,DateUTC
2013-05-11 00:03:00,56.8,21.4,30.11,North,353,0.0,0.0,25,0.00,,,0.00,VWS V14.01,2013-05-11 07:03:00,
2013-05-11 00:08:00,56.7,22.2,30.11,North,3,0.0,0.0,26,0.00,,,0.00,VWS V14.01,2013-05-11 07:08:00,
2013-05-11 00:13:00,56.7,22.2,30.11,North,353,0.0,0.0,26,0.00,,,0.00,VWS V14.01,2013-05-11 07:13:00,
2013-05-11 00:20:00,56.7,22.2,30.11,NNW,344,0.0,0.0,26,0.00,,,0.00,VWS V14.01,2013-05-11 07:20:00,
2013-05-11 00:25:00,56.7,21.3,30.11,North,10,0.0,0.0,25,0.00,,,0.00,VWS V14.01,2013-05-11 07:25:00,
2013-05-11 00:31:00,56.7,21.3,30.11,North,353,0.0,0.0,25,0.00,,,0.00,VWS V14.01,2013-05-11 07:31:00,
2013-05-11 00:36:00,56.7,21.3,30.11,NE,37,0.0,0.0,25,0.00,,,0.00,VWS V14.01,2013-05-11 07:36:00,
2013-05-11 00:42:00,56.5,22.0,30.11,NNE,19,0.0,0.0,26,0.00,,,0.00,VWS V14.01,2013-05-11 07:42:00,
2013-05-11 00:47:00,56.7,21.3,30.11,WNW,291,0.0,0.0,25,0.00,,,0.00,VWS V14.01,2013-05-11 07:47:00,
2013-05-11 00:52:00,56.7,21.3,30.11,WNW,302,0.0,0.0,25,0.00,,,0.00,VWS V14.01,2013-05-11 07:52:00,
2013-05-11 00:57:00,56.7,22.2,30.11,NW,318,0.0,0.0,26,0.00,,,0.00,VWS V14.01,2013-05-11 07:57:00,
2013-05-11 01:03:00,56.7,22.2,30.11,North,353,0.0,0.0,26,0.00,,,0.00,VWS V14.01,2013-05-11 08:03:00,
2013-05-11 01:09:00,56.5,22.0,30.11,North,353,0.0,0.0,26,0.00,,,0.00,VWS V14.01,2013-05-11 08:09:00,
2013-05-11 01:14:00,56.3,21.0,30.11,North,353,0.0,0.0,25,0.00,,,0.00,VWS V14.01,2013-05-11 08:14:00,
2013-05-11 01:19:00,56.3,21.0,30.11,North,353,0.0,0.0,25,0.00,,,0.00,VWS V14.01,2013-05-11 08:19:00,
2013-05-11 01:24:00,56.5,21.1,30.11,North,0,0.0,0.0,25,0.00,,,0.00,VWS V14.01,2013-05-11 08:24:00,
2013-05-11 01:30:00,56.5,21.1,30.11,North,349,0.0,0.0,25,0.00,,,0.00,VWS V14.01,2013-05-11 08:30:00,
2013-05-11 01:35:00,56.7,21.3,30.11,WSW,250,0.0,0.0,25,0.00,,,0.00,VWS V14.01,2013-05-11 08:35:00,
2013-05-11 01:40:00,56.5,21.1,30.11,WSW,250,0.0,0.0,25,0.00,,,0.00,VWS V14.01,2013-05-11 08:40:00,
2013-05-11 01:45:00,56.1,20.8,30.11,NW,312,0.0,0.0,25,0.00,,,0.00,VWS V14.01,2013-05-11 08:45:00,
2013-05-11 01:51:00,55.9,20.6,30.11,NNW,339,0.0,0.0,25,0.00,,,0.00,VWS V14.01,2013-05-11 08:51:00,
2013-05-11 01:56:00,55.9,20.6,30.11,NNW,334,0.0,0.0,25,0.00,,,0.00,VWS V14.01,2013-05-11 08:56:00,
2013-05-11 02:01:00,55.8,20.5,30.11,NNW,346,0.0,0.0,25,0.00,,,0.00,VWS V14.01,2013-05-11 09:01:00,
2013-05-11 02:06:00,55.8,20.5,30.14,NNW,345,0.0,0.0,25,0.00,,,0.00,VWS V14.01,2013-05-11 09:06:00,
2013-05-11 02:11:00,55.6,20.3,30.14,NW,313,0.0,0.0,25,0.00,,,0.00,VWS V14.01,2013-05-11 09:11:00,
2013-05-11 02:16:00,55.6,20.3,30.14,NW,318,0.0,0.0,25,0.00,,,0.00,VWS V14.01,2013-05-11 09:16:00,
2013-05-11 02:23:00,55.4,20.2,30.11,WSW,257,0.0,0.0,25,0.00,,,0.00,VWS V14.01,2013-05-11 09:23:00,
2013-05-11 02:28:00,55.6,20.3,30.11,NW,314,0.0,0.0,25,0.00,,,0.00,VWS V14.01,2013-05-11 09:28:00,
2013-05-11 02:33:00,55.8,20.5,30.11,NW,305,0.0,0.0,25,0.00,,,0.00,VWS V14.01,2013-05-11 09:33:00,
2013-05-11 02:38:00,55.8,20.5,30.11,West,274,0.0,0.0,25,0.00,,,0.00,VWS V14.01,2013-05-11 09:38:00,
2013-05-11 02:43:00,55.9,20.6,30.11,West,275,0.0,0.0,25,0.00,,,0.00,VWS V14.01,2013-05-11 09:43:00,
2013-05-11 02:49:00,56.3,21.0,30.11,WSW,244,0.0,0.0,25,0.00,,,0.00,VWS V14.01,2013-05-11 09:49:00,
2013-05-11 02:54:00,55.6,20.3,30.11,West,267,0.0,0.0,25,0.00,,,0.00,VWS V14.01,2013-05-11 09:54:00,
2013-05-11 02:59:00,55.0,20.8,30.11,WNW,287,0.0,0.0,26,0.00,,,0.00,VWS V14.01,2013-05-11 09:59:00,
2013-05-11 03:05:00,54.7,20.5,30.11,WNW,303,0.0,0.0,26,0.00,,,0.00,VWS V14.01,2013-05-11 10:05:00,
2013-05-11 03:10:00,54.5,20.3,30.11,NNE,16,0.0,0.0,26,0.00,,,0.00,VWS V14.01,2013-05-11 10:10:00,
2013-05-11 03:16:00,54.0,19.9,30.11,NNE,30,0.0,0.0,26,0.00,,,0.00,VWS V14.01,2013-05-11 10:16:00,
2013-05-11 03:22:00,53.8,19.7,30.11,North,353,0.0,0.0,26,0.00,,,0.00,VWS V14.01,2013-05-11 10:22:00,
2013-05-11 03:27:00,53.6,19.6,30.11,NNW,345,0.0,0.0,26,0.00,,,0.00,VWS V14.01,2013-05-11 10:27:00,
2013-05-11 03:32:00,53.6,19.6,30.11,NNW,344,0.0,0.0,26,0.00,,,0.00,VWS V14.01,2013-05-11 10:32:00,
2013-05-11 03:38:00,53.6,19.6,30.11,NNW,346,0.0,0.0,26,0.00,,,0.00,VWS V14.01,2013-05-11 10:38:00,
2013-05-11 03:43:00,53.4,19.4,30.11,NNW,345,0.0,0.0,26,0.00,,,0.00,VWS V14.01,2013-05-11 10:43:00,
2013-05-11 03:49:00,53.4,19.4,30.11,NNW,345,0.0,0.0,26,0.00,,,0.00,VWS V14.01,2013-05-11 10:49:00,
2013-05-11 03:55:00,53.4,19.4,30.11,NNW,344,0.0,0.0,26,0.00,,,0.00,VWS V14.01,2013-05-11 10:55:00,
2013-05-11 04:00:00,53.2,19.3,30.11,NNW,344,0.0,0.0,26,0.00,,,0.00,VWS V14.01,2013-05-11 11:00:00,
2013-05-11 04:06:00,53.4,19.4,30.11,NNW,344,0.0,0.0,26,0.00,,,0.00,VWS V14.01,2013-05-11 11:06:00,
2013-05-11 04:11:00,53.2,19.3,30.11,NNW,344,0.0,0.0,26,0.00,,,0.00,VWS V14.01,2013-05-11 11:11:00,
2013-05-11 04:16:00,53.2,19.3,30.11,NNW,344,0.0,0.0,26,0.00,,,0.00,VWS V14.01,2013-05-11 11:16:00,
2013-05-11 04:22:00,53.4,19.4,30.11,NNW,344,0.0,0.0,26,0.00,,,0.00,VWS V14.01,2013-05-11 11:22:00,
2013-05-11 04:27:00,53.4,19.4,30.11,NNW,344,0.0,0.0,26,0.00,,,0.00,VWS V14.01,2013-05-11 11:27:00,
2013-05-11 04:32:00,53.4,20.3,30.11,North,353,0.0,0.0,27,0.00,,,0.00,VWS V14.01,2013-05-11 11:32:00,
2013-05-11 04:38:00,53.1,20.0,30.11,ENE,77,0.0,0.0,27,0.00,,,0.00,VWS V14.01,2013-05-11 11:38:00,
2013-05-11 04:44:00,53.1,20.0,30.11,ENE,68,0.0,0.0,27,0.00,,,0.00,VWS V14.01,2013-05-11 11:44:00,
2013-05-11 04:49:00,53.2,20.1,30.11,ENE,68,0.0,0.0,27,0.00,,,0.00,VWS V14.01,2013-05-11 11:49:00,
2013-05-11 04:55:00,53.2,20.1,30.11,ENE,68,0.0,0.0,27,0.00,,,0.00,VWS V14.01,2013-05-11 11:55:00,
2013-05-11 05:00:00,53.4,19.4,30.11,ENE,66,0.0,0.0,26,0.00,,,0.00,VWS V14.01,2013-05-11 12:00:00,
2013-05-11 05:06:00,53.6,19.6,30.11,ENE,65,0.0,0.0,26,0.00,,,0.00,VWS V14.01,2013-05-11 12:06:00,
2013-05-11 05:11:00,53.6,19.6,30.11,ENE,64,0.0,0.0,26,0.00,,,0.00,VWS V14.01,2013-05-11 12:11:00,
2013-05-11 05:16:00,53.6,19.6,30.11,ENE,64,0.0,0.0,26,0.00,,,0.00,VWS V14.01,2013-05-11 12:16:00,
2013-05-11 05:21:00,53.6,19.6,30.11,NNE,25,0.0,0.0,26,0.00,,,0.00,VWS V14.01,2013-05-11 12:21:00,
2013-05-11 05:26:00,53.8,19.7,30.11,ENE,62,0.0,0.0,26,0.00,,,0.00,VWS V14.01,2013-05-11 12:26:00,
2013-05-11 05:32:00,53.8,19.7,30.11,NE,55,0.0,0.0,26,0.00,,,0.00,VWS V14.01,2013-05-11 12:32:00,
2013-05-11 05:38:00,54.0,19.9,30.11,NE,55,0.0,0.0,26,0.00,,,0.00,VWS V14.01,2013-05-11 12:38:00,
2013-05-11 05:43:00,54.0,19.9,30.11,NE,54,0.0,0.0,26,0.00,,,0.00,VWS V14.01,2013-05-11 12:43:00,
2013-05-11 05:49:00,54.0,19.9,30.11,ENE,60,0.0,0.0,26,0.00,,,0.00,VWS V14.01,2013-05-11 12:49:00,
2013-05-11 05:54:00,54.0,19.9,30.11,ENE,59,0.0,0.0,26,0.00,,,0.00,VWS V14.01,2013-05-11 12:54:00,
2013-05-11 05:59:00,54.0,19.9,30.11,ENE,59,0.0,0.0,26,0.00,,,0.00,VWS V14.01,2013-05-11 12:59:00,
2013-05-11 06:05:00,54.1,20.0,30.11,ENE,59,0.0,0.0,26,0.00,,,0.00,VWS V14.01,2013-05-11 13:05:00,
2013-05-11 06:10:00,54.3,20.2,30.11,ENE,58,0.0,0.0,26,0.00,,,0.00,VWS V14.01,2013-05-11 13:10:00,
2013-05-11 06:16:00,54.3,20.2,30.11,ENE,58,0.0,0.0,26,0.00,,,0.00,VWS V14.01,2013-05-11 13:16:00,
2013-05-11 06:22:00,54.5,20.3,30.11,ENE,58,0.0,0.0,26,0.00,,,0.00,VWS V14.01,2013-05-11 13:22:00,
2013-05-11 06:28:00,54.7,20.5,30.11,ENE,58,0.0,0.0,26,0.00,,,0.00,VWS V14.01,2013-05-11 13:28:00,
2013-05-11 06:33:00,54.9,20.6,30.11,ENE,58,0.0,0.0,26,0.00,,,0.00,VWS V14.01,2013-05-11 13:33:00,
2013-05-11 06:39:00,54.9,20.6,30.11,ENE,58,0.0,0.0,26,0.00,,,0.00,VWS V14.01,2013-05-11 13:39:00,
2013-05-11 06:44:00,54.5,20.3,30.11,ENE,59,0.0,0.0,26,0.00,,,0.00,VWS V14.01,2013-05-11 13:44:00,
2013-05-11 06:49:00,54.0,19.9,30.11,ENE,59,0.0,0.0,26,0.00,,,0.00,VWS V14.01,2013-05-11 13:49:00,
2013-05-11 06:55:00,53.8,19.7,30.11,ESE,108,0.0,0.0,26,0.00,,,0.00,VWS V14.01,2013-05-11 13:55:00,
2013-05-11 07:00:00,53.4,20.3,30.11,ESE,108,0.0,0.0,27,0.00,,,0.00,VWS V14.01,2013-05-11 14:00:00,
2013-05-11 07:06:00,53.4,20.3,30.11,ESE,108,0.0,0.0,27,0.00,,,0.00,VWS V14.01,2013-05-11 14:06:00,
2013-05-11 07:12:00,53.8,19.7,30.11,NNE,19,0.0,0.0,26,0.00,,,0.00,VWS V14.01,2013-05-11 14:12:00,
2013-05-11 07:17:00,53.8,19.7,30.11,NNE,19,0.0,0.0,26,0.00,,,0.00,VWS V14.01,2013-05-11 14:17:00,
2013-05-11 07:23:00,53.2,20.1,30.11,SE,139,0.0,0.0,27,0.00,,,0.00,VWS V14.01,2013-05-11 14:23:00,
2013-05-11 07:28:00,53.4,20.3,30.11,SE,139,0.0,0.0,27,0.00,,,0.00,VWS V14.01,2013-05-11 14:28:00,
2013-05-11 07:34:00,53.6,19.6,30.11,ENE,78,0.0,0.0,26,0.00,,,0.00,VWS V14.01,2013-05-11 14:34:00,
2013-05-11 07:39:00,53.2,20.1,30.11,ENE,78,0.0,0.0,27,0.00,,,0.00,VWS V14.01,2013-05-11 14:39:00,
2013-05-11 07:45:00,53.2,20.1,30.11,ENE,78,0.0,0.0,27,0.00,,,0.00,VWS V14.01,2013-05-11 14:45:00,
2013-05-11 07:50:00,53.6,19.6,30.11,ENE,78,0.0,0.0,26,0.00,,,0.00,VWS V14.01,2013-05-11 14:50:00,
2013-05-11 07:56:00,54.1,20.0,30.11,ENE,78,0.0,0.0,26,0.00,,,0.00,VWS V14.01,2013-05-11 14:56:00,
2013-05-11 08:01:00,54.9,20.6,30.11,ENE,78,0.0,0.0,26,0.00,,,0.00,VWS V14.01,2013-05-11 15:01:00,
2013-05-11 08:07:00,55.4,21.1,30.09,ENE,78,0.0,0.0,26,0.00,,,0.00,VWS V14.01,2013-05-11 15:07:00,
2013-05-11 08:12:00,55.2,21.0,30.09,ENE,78,0.0,0.0,26,0.00,,,0.00,VWS V14.01,2013-05-11 15:12:00,
2013-05-11 08:19:00,54.3,20.2,30.09,NW,318,0.0,0.0,26,0.00,,,0.00,VWS V14.01,2013-05-11 15:19:00,
2013-05-11 08:24:00,54.7,20.5,30.09,NW,318,0.0,0.0,26,0.00,,,0.00,VWS V14.01,2013-05-11 15:24:00,
2013-05-11 08:30:00,55.4,21.1,30.09,NW,318,0.0,0.0,26,0.00,,,0.00,VWS V14.01,2013-05-11 15:30:00,
2013-05-11 08:35:00,55.9,20.6,30.09,NW,318,0.0,0.0,25,0.00,,,0.00,VWS V14.01,2013-05-11 15:35:00,
2013-05-11 08:40:00,56.1,20.8,30.09,NW,318,0.0,0.0,25,0.00,,,0.00,VWS V14.01,2013-05-11 15:40:00,
2013-05-11 08:47:00,56.5,21.1,30.09,NW,318,0.0,0.0,25,0.00,,,0.00,VWS V14.01,2013-05-11 15:47:00,
2013-05-11 08:53:00,55.0,20.8,30.11,NW,318,0.0,0.0,26,0.00,,,0.00,VWS V14.01,2013-05-11 15:53:00,
2013-05-11 08:58:00,55.0,20.8,30.11,NW,318,0.0,0.0,26,0.00,,,0.00,VWS V14.01,2013-05-11 15:58:00,
2013-05-11 09:04:00,55.4,21.1,30.11,NNW,334,0.0,0.0,26,0.00,,,0.00,VWS V14.01,2013-05-11 16:04:00,
2013-05-11 09:09:00,55.9,21.6,30.11,NNW,334,0.0,0.0,26,0.00,,,0.00,VWS V14.01,2013-05-11 16:09:00,
2013-05-11 09:14:00,56.7,21.3,30.11,North,4,0.0,0.0,25,0.00,,,0.00,VWS V14.01,2013-05-11 16:14:00,
2013-05-11 09:20:00,57.0,21.6,30.11,North,4,0.0,0.0,25,0.00,,,0.00,VWS V14.01,2013-05-11 16:20:00,
2013-05-11 09:25:00,57.6,22.0,30.09,North,4,0.0,0.0,25,0.00,,,0.00,VWS V14.01,2013-05-11 16:25:00,
2013-05-11 09:31:00,57.9,22.3,30.09,North,4,0.0,0.0,25,0.00,,,0.00,VWS V14.01,2013-05-11 16:31:00,
2013-05-11 09:37:00,57.9,22.3,30.09,NE,52,0.0,0.0,25,0.00,,,0.00,VWS V14.01,2013-05-11 16:37:00,
2013-05-11 09:42:00,58.1,22.5,30.09,ENE,76,0.0,0.0,25,0.00,,,0.00,VWS V14.01,2013-05-11 16:42:00,
2013-05-11 09:47:00,58.3,22.6,30.09,ENE,76,0.0,0.0,25,0.00,,,0.00,VWS V14.01,2013-05-11 16:47:00,
2013-05-11 09:54:00,58.3,22.6,30.09,ENE,76,0.0,0.0,25,0.00,,,0.00,VWS V14.01,2013-05-11 16:54:00,
2013-05-11 09:59:00,58.5,22.8,30.09,ENE,76,0.0,0.0,25,0.00,,,0.00,VWS V14.01,2013-05-11 16:59:00,
2013-05-11 10:05:00,58.8,23.1,30.09,ENE,76,0.0,0.0,25,0.00,,,0.00,VWS V14.01,2013-05-11 17:05:00,
2013-05-11 10:10:00,59.2,22.4,30.09,ENE,76,0.0,0.0,24,0.00,,,0.00,VWS V14.01,2013-05-11 17:10:00,
2013-05-11 10:16:00,59.5,22.7,30.09,ENE,76,0.0,0.0,24,0.00,,,0.00,VWS V14.01,2013-05-11 17:16:00,
2013-05-11 10:21:00,59.2,22.4,30.09,ENE,76,0.0,0.0,24,0.00,,,0.00,VWS V14.01,2013-05-11 17:21:00,
2013-05-11 10:26:00,59.4,22.6,30.09,ENE,76,0.0,0.0,24,0.00,,,0.00,VWS V14.01,2013-05-11 17:26:00,
2013-05-11 10:32:00,59.9,23.0,30.09,ENE,77,0.0,0.0,24,0.00,,,0.00,VWS V14.01,2013-05-11 17:32:00,
2013-05-11 10:37:00,60.6,23.6,30.09,East,80,0.0,0.0,24,0.00,,,0.00,VWS V14.01,2013-05-11 17:37:00,
2013-05-11 10:43:00,61.2,24.1,30.09,East,80,0.0,0.0,24,0.00,,,0.00,VWS V14.01,2013-05-11 17:43:00,
2013-05-11 10:49:00,62.4,25.2,30.09,East,80,0.0,0.0,24,0.00,,,0.00,VWS V14.01,2013-05-11 17:49:00,
2013-05-11 10:54:00,63.1,24.8,30.09,SE,143,0.0,0.0,23,0.00,,,0.00,VWS V14.01,2013-05-11 17:54:00,
2013-05-11 11:00:00,63.7,25.2,30.09,SE,143,0.0,0.0,23,0.00,,,0.00,VWS V14.01,2013-05-11 18:00:00,
2013-05-11 11:05:00,63.9,25.4,30.09,SSW,205,0.0,0.0,23,0.00,,,0.00,VWS V14.01,2013-05-11 18:05:00,
2013-05-11 11:11:00,64.8,26.1,30.09,SSW,205,0.0,0.0,23,0.00,,,0.00,VWS V14.01,2013-05-11 18:11:00,
2013-05-11 11:17:00,65.1,26.4,30.09,SSE,163,0.0,0.0,23,0.00,,,0.00,VWS V14.01,2013-05-11 18:17:00,
2013-05-11 11:22:00,63.9,25.4,30.09,SE,140,0.0,0.0,23,0.00,,,0.00,VWS V14.01,2013-05-11 18:22:00,
2013-05-11 11:27:00,63.7,25.2,30.09,SE,140,0.0,0.0,23,0.00,,,0.00,VWS V14.01,2013-05-11 18:27:00,
2013-05-11 11:33:00,64.0,25.5,30.09,SE,140,0.0,0.0,23,0.00,,,0.00,VWS V14.01,2013-05-11 18:33:00,
2013-05-11 11:39:00,65.1,26.4,30.06,SE,140,0.0,0.0,23,0.00,,,0.00,VWS V14.01,2013-05-11 18:39:00,
2013-05-11 11:45:00,66.0,23.8,30.06,SE,140,0.0,0.0,20,0.00,,,0.00,VWS V14.01,2013-05-11 18:45:00,
2013-05-11 11:51:00,66.7,24.4,30.06,SE,140,0.0,0.0,20,0.00,,,0.00,VWS V14.01,2013-05-11 18:51:00,
2013-05-11 11:56:00,65.7,23.5,30.06,SSE,156,0.0,0.0,20,0.00,,,0.00,VWS V14.01,2013-05-11 18:56:00,
2013-05-11 12:01:00,65.7,26.9,30.06,SSE,156,0.0,0.0,23,0.00,,,0.00,VWS V14.01,2013-05-11 19:01:00,
2013-05-11 12:07:00,66.0,23.8,30.06,SSE,156,0.0,0.0,20,0.00,,,0.00,VWS V14.01,2013-05-11 19:07:00,
2013-05-11 12:12:00,66.4,24.1,30.06,ESE,121,0.0,0.0,20,0.00,,,0.00,VWS V14.01,2013-05-11 19:12:00,
2013-05-11 12:17:00,67.8,25.3,30.06,ESE,121,0.0,0.0,20,0.00,,,0.00,VWS V14.01,2013-05-11 19:17:00,
2013-05-11 12:23:00,70.5,23.6,30.06,ESE,121,0.0,0.0,17,0.00,,,0.00,VWS V14.01,2013-05-11 19:23:00,
2013-05-11 12:28:00,73.0,24.2,30.06,SW,223,6.7,6.7,16,0.00,,,0.00,VWS V14.01,2013-05-11 19:28:00,
2013-05-11 12:33:00,74.3,25.2,30.06,SW,218,5.8,5.8,16,0.00,,,0.00,VWS V14.01,2013-05-11 19:33:00,
2013-05-11 12:38:00,73.8,24.8,30.06,SW,227,5.4,5.4,16,0.00,,,0.00,VWS V14.01,2013-05-11 19:38:00,
2013-05-11 12:43:00,73.6,24.7,30.06,SW,225,4.0,4.0,16,0.00,,,0.00,VWS V14.01,2013-05-11 19:43:00,
2013-05-11 12:49:00,72.7,23.9,30.06,SW,235,3.1,4.0,16,0.00,,,0.00,VWS V14.01,2013-05-11 19:49:00,
2013-05-11 12:54:00,74.5,25.4,30.06,SW,222,5.8,5.8,16,0.00,,,0.00,VWS V14.01,2013-05-11 19:54:00,
2013-05-11 13:00:00,74.1,25.1,30.06,SW,229,5.8,5.8,16,0.00,,,0.00,VWS V14.01,2013-05-11 20:00:00,
2013-05-11 13:05:00,75.6,24.7,30.06,SW,225,6.3,6.3,15,0.00,,,0.00,VWS V14.01,2013-05-11 20:05:00,
2013-05-11 13:10:00,76.3,25.3,30.03,SSW,202,5.4,8.3,15,0.00,,,0.00,VWS V14.01,2013-05-11 20:10:00,
2013-05-11 13:16:00,76.6,25.6,30.03,SW,219,11.0,11.0,15,0.00,,,0.00,VWS V14.01,2013-05-11 20:16:00,
2013-05-11 13:21:00,76.6,25.6,30.03,SW,220,7.6,7.6,15,0.00,,,0.00,VWS V14.01,2013-05-11 20:21:00,
2013-05-11 13:26:00,76.1,25.1,30.03,SW,236,8.1,8.1,15,0.00,,,0.00,VWS V14.01,2013-05-11 20:26:00,
2013-05-11 13:32:00,75.4,24.6,30.03,SW,233,4.9,6.3,15,0.00,,,0.00,VWS V14.01,2013-05-11 20:32:00,
2013-05-11 13:37:00,75.6,24.7,30.03,SW,217,3.6,5.8,15,0.00,,,0.00,VWS V14.01,2013-05-11 20:37:00,
2013-05-11 13:42:00,74.5,25.4,30.03,SW,226,5.8,7.6,16,0.00,,,0.00,VWS V14.01,2013-05-11 20:42:00,
2013-05-11 13:47:00,74.3,25.2,30.03,SW,224,0.0,0.0,16,0.00,,,0.00,VWS V14.01,2013-05-11 20:47:00,
2013-05-11 13:54:00,74.1,25.1,30.03,SW,219,4.0,4.0,16,0.00,,,0.00,VWS V14.01,2013-05-11 20:54:00,
2013-05-11 13:59:00,77.7,26.4,30.03,SSW,207,3.1,6.3,15,0.00,,,0.00,VWS V14.01,2013-05-11 20:59:00,
2013-05-11 14:05:00,77.9,26.6,30.03,SSW,200,3.6,5.8,15,0.00,,,0.00,VWS V14.01,2013-05-11 21:05:00,
2013-05-11 14:10:00,78.4,27.0,30.03,SSW,202,7.6,7.6,15,0.00,,,0.00,VWS V14.01,2013-05-11 21:10:00,
2013-05-11 14:16:00,78.3,26.9,30.03,South,184,3.1,5.4,15,0.00,,,0.00,VWS V14.01,2013-05-11 21:16:00,
2013-05-11 14:22:00,76.8,25.7,30.03,SW,226,0.0,3.1,15,0.00,,,0.00,VWS V14.01,2013-05-11 21:22:00,
2013-05-11 14:27:00,77.2,26.0,30.03,SW,219,7.6,7.6,15,0.00,,,0.00,VWS V14.01,2013-05-11 21:27:00,
2013-05-11 14:32:00,77.9,26.6,30.03,South,184,0.0,0.0,15,0.00,,,0.00,VWS V14.01,2013-05-11 21:32:00,
2013-05-11 14:37:00,77.5,26.3,30.03,SW,235,3.1,3.6,15,0.00,,,0.00,VWS V14.01,2013-05-11 21:37:00,
2013-05-11 14:42:00,77.5,26.3,30.03,SW,218,5.8,5.8,15,0.00,,,0.00,VWS V14.01,2013-05-11 21:42:00,
2013-05-11 14:47:00,77.5,26.3,30.03,WSW,238,5.8,7.6,15,0.00,,,0.00,VWS V14.01,2013-05-11 21:47:00,
2013-05-11 14:53:00,79.0,27.4,30.03,SW,221,7.6,11.0,15,0.00,,,0.00,VWS V14.01,2013-05-11 21:53:00,
2013-05-11 14:58:00,78.4,27.0,30.03,SW,228,5.4,5.4,15,0.00,,,0.00,VWS V14.01,2013-05-11 21:58:00,
2013-05-11 15:03:00,77.7,26.4,30.03,WSW,252,6.3,6.3,15,0.00,,,0.00,VWS V14.01,2013-05-11 22:03:00,
2013-05-11 15:09:00,78.1,26.7,30.00,SW,217,8.7,10.5,15,0.00,,,0.00,VWS V14.01,2013-05-11 22:09:00,
2013-05-11 15:14:00,78.8,27.3,30.00,SW,223,8.7,8.7,15,0.00,,,0.00,VWS V14.01,2013-05-11 22:14:00,
2013-05-11 15:20:00,79.0,27.4,30.00,SW,216,6.3,6.3,15,0.00,,,0.00,VWS V14.01,2013-05-11 22:20:00,
2013-05-11 15:25:00,79.7,28.0,30.00,West,277,5.4,7.2,15,0.00,,,0.00,VWS V14.01,2013-05-11 22:25:00,
2013-05-11 15:31:00,79.5,27.9,30.00,SW,230,8.7,10.5,15,0.00,,,0.00,VWS V14.01,2013-05-11 22:31:00,
2013-05-11 15:36:00,79.5,27.9,30.00,WSW,237,5.4,6.3,15,0.00,,,0.00,VWS V14.01,2013-05-11 22:36:00,
2013-05-11 15:41:00,79.7,28.0,30.00,WSW,239,3.1,3.1,15,0.00,,,0.00,VWS V14.01,2013-05-11 22:41:00,
2013-05-11 15:46:00,79.9,28.1,30.00,SW,214,6.3,6.3,15,0.00,,,0.00,VWS V14.01,2013-05-11 22:46:00,
2013-05-11 15:52:00,79.5,27.9,30.00,SW,224,6.7,7.6,15,0.00,,,0.00,VWS V14.01,2013-05-11 22:52:00,
2013-05-11 15:58:00,79.2,27.6,30.00,SW,218,8.3,8.3,15,0.00,,,0.00,VWS V14.01,2013-05-11 22:58:00,
2013-05-11 16:04:00,79.0,27.4,30.00,SW,230,6.3,6.3,15,0.00,,,0.00,VWS V14.01,2013-05-11 23:04:00,
2013-05-11 16:09:00,77.5,26.3,30.00,SW,220,2.7,8.1,15,0.00,,,0.00,VWS V14.01,2013-05-11 23:09:00,
2013-05-11 16:14:00,77.4,26.1,30.00,WSW,257,8.3,8.3,15,0.00,,,0.00,VWS V14.01,2013-05-11 23:14:00,
2013-05-11 16:19:00,77.9,26.6,30.00,SW,227,8.3,8.3,15,0.00,,,0.00,VWS V14.01,2013-05-11 23:19:00,
2013-05-11 16:25:00,77.2,26.0,30.00,SW,234,8.1,8.1,15,0.00,,,0.00,VWS V14.01,2013-05-11 23:25:00,
2013-05-11 16:30:00,77.5,26.3,30.00,WSW,245,7.6,7.6,15,0.00,,,0.00,VWS V14.01,2013-05-11 23:30:00,
2013-05-11 16:35:00,77.2,26.0,30.00,SW,227,7.6,7.6,15,0.00,,,0.00,VWS V14.01,2013-05-11 23:35:00,
2013-05-11 16:40:00,76.8,25.7,30.00,SW,224,5.8,5.8,15,0.00,,,0.00,VWS V14.01,2013-05-11 23:40:00,
2013-05-11 16:45:00,75.9,25.0,30.00,SW,224,5.8,5.8,15,0.00,,,0.00,VWS V14.01,2013-05-11 23:45:00,
2013-05-11 16:50:00,75.0,25.8,30.00,SW,215,7.6,7.6,16,0.00,,,0.00,VWS V14.01,2013-05-11 23:50:00,
2013-05-11 16:56:00,75.6,24.7,30.00,WSW,244,5.8,5.8,15,0.00,,,0.00,VWS V14.01,2013-05-11 23:56:00,
2013-05-11 17:01:00,77.0,25.9,30.00,SW,219,7.6,7.6,15,0.00,,,0.00,VWS V14.01,2013-05-12 00:01:00,
2013-05-11 17:07:00,76.1,25.1,30.00,WSW,253,7.6,7.6,15,0.00,,,0.00,VWS V14.01,2013-05-12 00:07:00,
2013-05-11 17:12:00,76.3,25.3,30.00,SW,221,7.6,7.6,15,0.00,,,0.00,VWS V14.01,2013-05-12 00:12:00,
2013-05-11 17:17:00,76.5,25.4,30.00,WSW,240,5.4,7.6,15,0.00,,,0.00,VWS V14.01,2013-05-12 00:17:00,
2013-05-11 17:22:00,76.3,25.3,30.00,SW,222,8.3,8.3,15,0.00,,,0.00,VWS V14.01,2013-05-12 00:22:00,
2013-05-11 17:28:00,76.6,25.6,30.00,SW,217,5.8,5.8,15,0.00,,,0.00,VWS V14.01,2013-05-12 00:28:00,
2013-05-11 17:34:00,77.4,26.1,30.00,WSW,247,8.7,8.7,15,0.00,,,0.00,VWS V14.01,2013-05-12 00:34:00,
2013-05-11 17:39:00,76.3,25.3,30.00,SSW,212,6.3,6.3,15,0.00,,,0.00,VWS V14.01,2013-05-12 00:39:00,
2013-05-11 17:45:00,76.1,25.1,30.00,SW,229,0.0,0.0,15,0.00,,,0.00,VWS V14.01,2013-05-12 00:45:00,
2013-05-11 17:50:00,75.0,25.8,30.00,SW,224,3.1,4.9,16,0.00,,,0.00,VWS V14.01,2013-05-12 00:50:00,
2013-05-11 17:56:00,73.6,24.7,30.00,SW,231,0.0,0.0,16,0.00,,,0.00,VWS V14.01,2013-05-12 00:56:00,
2013-05-11 18:01:00,73.9,25.0,30.00,SW,227,0.0,0.0,16,0.00,,,0.00,VWS V14.01,2013-05-12 01:01:00,
2013-05-11 18:06:00,75.6,24.7,30.00,SW,236,4.9,4.9,15,0.00,,,0.00,VWS V14.01,2013-05-12 01:06:00,
2013-05-11 18:12:00,74.5,25.4,29.97,SW,232,2.7,2.7,16,0.00,,,0.00,VWS V14.01,2013-05-12 01:12:00,
2013-05-11 18:17:00,75.2,24.4,29.97,SW,222,3.6,4.0,15,0.00,,,0.00,VWS V14.01,2013-05-12 01:17:00,
2013-05-11 18:22:00,75.0,25.8,29.97,SW,223,4.0,4.0,16,0.00,,,0.00,VWS V14.01,2013-05-12 01:22:00,
2013-05-11 18:29:00,75.2,24.4,29.97,SW,217,8.1,8.1,15,0.00,,,0.00,VWS V14.01,2013-05-12 01:29:00,
2013-05-11 18:34:00,74.7,25.5,29.97,SSW,193,5.4,5.4,16,0.00,,,0.00,VWS V14.01,2013-05-12 01:34:00,
2013-05-11 18:39:00,73.6,24.7,29.97,SW,229,5.8,5.8,16,0.00,,,0.00,VWS V14.01,2013-05-12 01:39:00,
2013-05-11 18:44:00,73.9,25.0,29.97,SW,219,4.5,4.5,16,0.00,,,0.00,VWS V14.01,2013-05-12 01:44:00,
2013-05-11 18:50:00,73.0,24.2,29.97,West,265,0.0,0.0,16,0.00,,,0.00,VWS V14.01,2013-05-12 01:50:00,
2013-05-11 18:55:00,72.9,24.1,29.97,SW,222,0.0,0.0,16,0.00,,,0.00,VWS V14.01,2013-05-12 01:55:00,
2013-05-11 19:00:00,72.9,28.2,29.97,WSW,240,0.0,0.0,19,0.00,,,0.00,VWS V14.01,2013-05-12 02:00:00,
2013-05-11 19:06:00,73.2,28.5,29.97,WSW,249,0.0,3.6,19,0.00,,,0.00,VWS V14.01,2013-05-12 02:06:00,
2013-05-11 19:11:00,73.6,24.7,29.97,West,266,0.0,0.0,16,0.00,,,0.00,VWS V14.01,2013-05-12 02:11:00,
2013-05-11 19:17:00,73.9,25.0,29.97,SW,215,3.6,3.6,16,0.00,,,0.00,VWS V14.01,2013-05-12 02:17:00,
2013-05-11 19:22:00,74.1,25.1,29.97,SW,224,7.6,7.6,16,0.00,,,0.00,VWS V14.01,2013-05-12 02:22:00,
2013-05-11 19:27:00,74.1,25.1,29.97,SW,219,2.7,6.3,16,0.00,,,0.00,VWS V14.01,2013-05-12 02:27:00,
2013-05-11 19:32:00,73.9,25.0,29.97,WNW,295,0.0,3.1,16,0.00,,,0.00,VWS V14.01,2013-05-12 02:32:00,
2013-05-11 19:38:00,73.6,24.7,29.97,SW,216,6.3,6.3,16,0.00,,,0.00,VWS V14.01,2013-05-12 02:38:00,
2013-05-11 19:44:00,73.4,24.5,29.97,SW,224,2.2,2.2,16,0.00,,,0.00,VWS V14.01,2013-05-12 02:44:00,
2013-05-11 19:50:00,73.0,24.2,29.97,West,270,6.3,6.3,16,0.00,,,0.00,VWS V14.01,2013-05-12 02:50:00,
2013-05-11 19:55:00,72.5,23.8,29.97,SW,221,5.8,5.8,16,0.00,,,0.00,VWS V14.01,2013-05-12 02:55:00,
2013-05-11 20:00:00,71.8,23.2,29.97,West,261,3.1,4.0,16,0.00,,,0.00,VWS V14.01,2013-05-12 03:00:00,
2013-05-11 20:06:00,71.4,24.4,29.97,SW,217,5.8,8.7,17,0.00,,,0.00,VWS V14.01,2013-05-12 03:06:00,
2013-05-11 20:11:00,70.5,23.6,29.97,SW,217,5.8,5.8,17,0.00,,,0.00,VWS V14.01,2013-05-12 03:11:00,
2013-05-11 20:16:00,69.6,22.9,29.97,WSW,238,6.3,6.3,17,0.00,,,0.00,VWS V14.01,2013-05-12 03:16:00,
2013-05-11 20:21:00,69.1,26.4,29.97,SW,235,5.8,6.3,20,0.00,,,0.00,VWS V14.01,2013-05-12 03:21:00,
2013-05-11 20:26:00,68.5,25.9,29.97,SW,218,8.3,8.3,20,0.00,,,0.00,VWS V14.01,2013-05-12 03:26:00,
2013-05-11 20:33:00,68.0,25.5,29.97,West,271,7.2,7.2,20,0.00,,,0.00,VWS V14.01,2013-05-12 03:33:00,
2013-05-11 20:38:00,67.5,25.0,29.97,SW,214,8.7,8.7,20,0.00,,,0.00,VWS V14.01,2013-05-12 03:38:00,
2013-05-11 20:43:00,66.7,24.4,29.97,SW,227,7.6,8.3,20,0.00,,,0.00,VWS V14.01,2013-05-12 03:43:00,
2013-05-11 20:49:00,66.4,24.1,29.97,SW,224,8.3,8.3,20,0.00,,,0.00,VWS V14.01,2013-05-12 03:49:00,
2013-05-11 20:54:00,66.2,24.0,29.97,SW,229,8.7,10.1,20,0.00,,,0.00,VWS V14.01,2013-05-12 03:54:00,
2013-05-11 20:59:00,66.0,23.8,29.97,SW,222,8.1,9.6,20,0.00,,,0.00,VWS V14.01,2013-05-12 03:59:00,
2013-05-11 21:02:00,65.8,23.7,29.97,SW,222,8.1,8.1,20,0.00,,,0.00,VWS V14.01,2013-05-12 04:02:00,
2013-05-11 21:03:00,65.8,23.7,29.97,WSW,243,5.8,8.1,20,0.00,,,0.00,VWS V14.01,2013-05-12 04:03:00,
2013-05-11 21:04:00,65.8,23.7,29.97,SW,230,5.4,5.8,20,0.00,,,0.00,VWS V14.01,2013-05-12 04:04:00,
2013-05-11 21:06:00,65.7,23.5,29.97,SW,236,3.6,3.6,20,0.00,,,0.00,VWS V14.01,2013-05-12 04:06:00,
2013-05-11 21:10:00,65.8,23.7,29.97,SW,233,4.9,4.9,20,0.00,,,0.00,VWS V14.01,2013-05-12 04:10:00,
2013-05-11 21:16:00,65.1,23.1,29.97,SSW,213,6.3,7.6,20,0.00,,,0.00,VWS V14.01,2013-05-12 04:16:00,
2013-05-11 21:21:00,64.2,23.5,29.97,SW,232,4.0,4.0,21,0.00,,,0.00,VWS V14.01,2013-05-12 04:21:00,
2013-05-11 21:27:00,63.7,25.2,30.00,SW,224,8.7,10.1,23,0.00,,,0.00,VWS V14.01,2013-05-12 04:27:00,
2013-05-11 21:32:00,63.9,25.4,30.00,SW,217,6.3,6.3,23,0.00,,,0.00,VWS V14.01,2013-05-12 04:32:00,
2013-05-11 21:37:00,63.3,24.9,30.00,SW,216,6.3,7.6,23,0.00,,,0.00,VWS V14.01,2013-05-12 04:37:00,
2013-05-11 21:43:00,63.1,24.8,30.00,SW,214,5.4,7.6,23,0.00,,,0.00,VWS V14.01,2013-05-12 04:43:00,
2013-05-11 21:48:00,63.0,24.6,30.00,SW,231,6.3,8.1,23,0.00,,,0.00,VWS V14.01,2013-05-12 04:48:00,
2013-05-11 21:53:00,62.8,24.5,30.00,SW,225,8.3,8.3,23,0.00,,,0.00,VWS V14.01,2013-05-12 04:53:00,
2013-05-11 21:58:00,62.4,25.2,30.00,SW,220,6.3,6.3,24,0.00,,,0.00,VWS V14.01,2013-05-12 04:58:00,
2013-05-11 22:03:00,62.2,25.0,30.00,SW,220,6.3,6.3,24,0.00,,,0.00,VWS V14.01,2013-05-12 05:03:00,
2013-05-11 22:09:00,61.7,24.6,30.00,SW,227,6.3,8.7,24,0.00,,,0.00,VWS V14.01,2013-05-12 05:09:00,
2013-05-11 22:14:00,61.9,24.7,30.00,SW,221,8.1,8.1,24,0.00,,,0.00,VWS V14.01,2013-05-12 05:14:00,
2013-05-11 22:20:00,61.7,24.6,30.00,SW,224,3.6,3.6,24,0.00,,,0.00,VWS V14.01,2013-05-12 05:20:00,
2013-05-11 22:25:00,61.3,24.3,30.00,WSW,254,6.3,6.3,24,0.00,,,0.00,VWS V14.01,2013-05-12 05:25:00,
2013-05-11 22:30:00,61.0,24.0,30.00,WSW,245,3.6,3.6,24,0.00,,,0.00,VWS V14.01,2013-05-12 05:30:00,
2013-05-11 22:36:00,61.0,24.0,30.00,SW,228,5.4,5.4,24,0.00,,,0.00,VWS V14.01,2013-05-12 05:36:00,
2013-05-11 22:41:00,61.0,24.0,30.00,SW,230,8.3,8.3,24,0.00,,,0.00,VWS V14.01,2013-05-12 05:41:00,
2013-05-11 22:46:00,60.8,23.8,30.00,SW,223,8.3,8.7,24,0.00,,,0.00,VWS V14.01,2013-05-12 05:46:00,
2013-05-11 22:51:00,60.4,23.5,30.00,SW,234,6.3,6.3,24,0.00,,,0.00,VWS V14.01,2013-05-12 05:51:00,
2013-05-11 22:57:00,60.6,23.6,30.00,West,263,5.4,5.4,24,0.00,,,0.00,VWS V14.01,2013-05-12 05:57:00,
2013-05-11 23:03:00,61.0,24.0,30.00,WSW,243,3.1,3.1,24,0.00,,,0.00,VWS V14.01,2013-05-12 06:03:00,
2013-05-11 23:08:00,61.3,24.3,30.00,SW,218,8.1,8.1,24,0.00,,,0.00,VWS V14.01,2013-05-12 06:08:00,
2013-05-11 23:14:00,61.3,24.3,30.00,SW,225,5.4,5.4,24,0.00,,,0.00,VWS V14.01,2013-05-12 06:14:00,
2013-05-11 23:19:00,61.2,24.1,30.00,SW,231,5.8,6.7,24,0.00,,,0.00,VWS V14.01,2013-05-12 06:19:00,
2013-05-11 23:24:00,61.0,24.0,30.00,SW,223,8.1,8.1,24,0.00,,,0.00,VWS V14.01,2013-05-12 06:24:00,
2013-05-11 23:29:00,61.0,24.0,30.00,SW,227,5.4,8.1,24,0.00,,,0.00,VWS V14.01,2013-05-12 06:29:00,
2013-05-11 23:34:00,60.8,23.8,30.00,SW,227,5.4,5.4,24,0.00,,,0.00,VWS V14.01,2013-05-12 06:34:00,
2013-05-11 23:40:00,60.8,23.8,30.00,WSW,237,0.0,0.0,24,0.00,,,0.00,VWS V14.01,2013-05-12 06:40:00,
2013-05-11 23:46:00,61.2,24.1,30.00,WSW,255,0.0,0.0,24,0.00,,,0.00,VWS V14.01,2013-05-12 06:46:00,
2013-05-11 23:51:00,61.2,24.1,30.00,WSW,256,0.0,0.0,24,0.00,,,0.00,VWS V14.01,2013-05-12 06:51:00,
2013-05-11 23:57:00,61.3,24.3,30.00,NNW,332,4.0,4.0,24,0.00,,,0.00,VWS V14.01,2013-05-12 06:57:00,